| time (UTC) | temp F | wind direction | speed MPH | gust MPH | rain 1hr in | rain 24hr in | rain mn in | humidity % | barometer mb |
| 20260901111516 | 58 | 129 | 2.0 | 0.0 | 0.00 | 0.00 | 0.00 | 45 | 1000.5 |
| 20260901110016 | 58 | 129 | 3.0 | 0.0 | 0.00 | 0.00 | 0.00 | 45 | 1000.6 |
| 20260901104515 | 57 | 126 | 1.0 | 0.0 | 0.00 | 0.00 | 0.00 | 47 | 1000.5 |
| 20260901103014 | 57 | 126 | 3.0 | 0.0 | 0.00 | 0.00 | 0.00 | 48 | 1000.4 |
| 20260901101513 | 57 | 126 | 1.0 | 0.0 | 0.00 | 0.00 | 0.00 | 48 | 1000.5 |
| 20260901100011 | 57 | 126 | 3.0 | 0.0 | 0.00 | 0.00 | 0.00 | 48 | 1000.5 |
| 20260901094516 | 58 | 122 | 3.0 | 0.0 | 0.00 | 0.00 | 0.00 | 47 | 1000.6 |
| 20260901093007 | 58 | 118 | 3.0 | 0.0 | 0.00 | 0.00 | 0.00 | 47 | 1000.5 |
| 20260901091506 | 59 | 85 | 2.0 | 0.0 | 0.00 | 0.00 | 0.00 | 46 | 1000.5 |
| 20260901090007 | 59 | 84 | 2.0 | 0.0 | 0.00 | 0.00 | 0.00 | 46 | 1000.6 |
| 20260901084503 | 59 | 84 | 1.0 | 0.0 | 0.00 | 0.00 | 0.00 | 46 | 1000.4 |
| 20260901083003 | 59 | 84 | 1.0 | 0.0 | 0.00 | 0.00 | 0.00 | 46 | 1000.4 |
| 20260901081502 | 59 | 84 | 2.0 | 0.0 | 0.00 | 0.00 | 0.00 | 47 | 1000.3 |
| 20260901080106 | 60 | 84 | 2.0 | 0.0 | 0.00 | 0.00 | 0.00 | 46 | 1000.4 |
| 20260901074558 | 61 | 84 | 2.0 | 0.0 | 0.00 | 0.00 | 0.00 | 44 | 1000.4 |
| 20260901073105 | 61 | 83 | 0.0 | 0.0 | 0.00 | 0.00 | 0.00 | 44 | 1000.5 |
| 20260901071557 | 60 | 83 | 1.0 | 0.0 | 0.00 | 0.00 | 0.00 | 45 | 1000.5 |
| 20260901070055 | 61 | 83 | 2.0 | 0.0 | 0.00 | 0.00 | 0.00 | 44 | 1000.4 |
| 20260901064554 | 62 | 83 | 0.0 | 0.0 | 0.00 | 0.00 | 0.00 | 42 | 1000.4 |
| 20260901063057 | 63 | 83 | 0.0 | 0.0 | 0.00 | 0.00 | 0.00 | 40 | 1000.6 |
| 20260901061553 | 63 | 83 | 1.0 | 0.0 | 0.00 | 0.00 | 0.00 | 40 | 1000.5 |
| 20260901060053 | 65 | 83 | 2.0 | 0.0 | 0.00 | 0.00 | 0.00 | 38 | 1000.5 |
| 20260901054552 | 65 | 83 | 0.0 | 0.0 | 0.00 | 0.00 | 0.00 | 37 | 1000.6 |
| 20260901053059 | 66 | 83 | 0.0 | 0.0 | 0.00 | 0.00 | 0.00 | 36 | 1000.6 |
| 20260901051552 | 67 | 83 | 0.0 | 0.0 | 0.00 | 0.00 | 0.00 | 35 | 1000.7 |
| 20260901050051 | 68 | 83 | 0.0 | 0.0 | 0.00 | 0.00 | 0.00 | 34 | 1000.7 |
| 20260901044550 | 69 | 83 | 1.0 | 0.0 | 0.00 | 0.00 | 0.00 | 33 | 1000.6 |
| 20260901043050 | 69 | 83 | 2.0 | 0.0 | 0.00 | 0.00 | 0.00 | 33 | 1000.4 |
| 20260901041553 | 69 | 57 | 1.0 | 0.0 | 0.00 | 0.00 | 0.00 | 32 | 1000.5 |
| 20260901040050 | 70 | 55 | 2.0 | 0.0 | 0.00 | 0.00 | 0.00 | 31 | 1000.0 |
| 20260901034549 | 71 | 231 | 3.0 | 0.0 | 0.00 | 0.00 | 0.00 | 26 | 999.8 |
| 20260901033049 | 72 | 194 | 2.0 | 0.0 | 0.00 | 0.00 | 0.00 | 25 | 999.6 |
| 20260901031549 | 73 | 307 | 4.0 | 0.0 | 0.00 | 0.00 | 0.00 | 24 | 999.3 |
| 20260901030048 | 72 | 204 | 5.0 | 0.0 | 0.00 | 0.00 | 0.00 | 26 | 999.3 |
| 20260901024547 | 73 | 213 | 5.0 | 0.0 | 0.00 | 0.00 | 0.00 | 28 | 999.4 |
| 20260901023047 | 73 | 213 | 5.0 | 0.0 | 0.00 | 0.00 | 0.00 | 27 | 999.3 |
| 20260901021547 | 74 | 226 | 7.0 | 0.0 | 0.00 | 0.00 | 0.00 | 28 | 999.2 |
| 20260901020050 | 76 | 270 | 7.0 | 0.0 | 0.00 | 0.00 | 0.00 | 26 | 999.0 |
| 20260901014547 | 77 | 259 | 8.0 | 0.0 | 0.00 | 0.00 | 0.00 | 25 | 999.0 |
| 20260901013048 | 78 | 259 | 8.0 | 0.0 | 0.00 | 0.00 | 0.00 | 25 | 999.0 |
| 20260901011545 | 79 | 265 | 8.0 | 0.0 | 0.00 | 0.00 | 0.00 | 23 | 999.1 |
| 20260901010046 | 81 | 215 | 7.0 | 0.0 | 0.00 | 0.00 | 0.00 | 22 | 998.9 |
| 20260901004543 | 82 | 228 | 9.0 | 0.0 | 0.00 | 0.00 | 0.00 | 21 | 998.9 |
| 20260901003043 | 83 | 223 | 6.0 | 0.0 | 0.00 | 0.00 | 0.00 | 19 | 999.1 |
| 20260901001543 | 83 | 176 | 5.0 | 0.0 | 0.00 | 0.00 | 0.00 | 18 | 999.1 |
| 20260901000044 | 83 | 234 | 6.0 | 0.0 | 0.00 | 0.00 | 0.00 | 17 | 999.1 |
| 20260831234549 | 84 | 211 | 6.0 | 0.0 | 0.00 | 0.00 | 0.00 | 17 | 999.2 |
| 20260831233041 | 84 | 242 | 6.0 | 0.0 | 0.00 | 0.00 | 0.00 | 17 | 999.3 |
| 20260831231539 | 83 | 250 | 7.0 | 0.0 | 0.00 | 0.00 | 0.00 | 17 | 999.4 |
| 20260831230041 | 84 | 331 | 8.0 | 0.0 | 0.00 | 0.00 | 0.00 | 16 | 999.4 |
| 20260831224537 | 84 | 224 | 9.0 | 0.0 | 0.00 | 0.00 | 0.00 | 16 | 999.7 |
| 20260831223041 | 84 | 252 | 8.0 | 0.0 | 0.00 | 0.00 | 0.00 | 16 | 999.8 |
| 20260831221536 | 85 | 250 | 5.0 | 0.0 | 0.00 | 0.00 | 0.00 | 15 | 1000.0 |
| 20260831220033 | 85 | 270 | 6.0 | 0.0 | 0.00 | 0.00 | 0.00 | 15 | 1000.1 |
| 20260831214533 | 84 | 189 | 9.0 | 0.0 | 0.00 | 0.00 | 0.00 | 15 | 1000.2 |
| 20260831213032 | 84 | 173 | 7.0 | 0.0 | 0.00 | 0.00 | 0.00 | 15 | 1000.4 |
| 20260831211533 | 85 | 134 | 7.0 | 0.0 | 0.00 | 0.00 | 0.00 | 15 | 1000.4 |
| 20260831210035 | 84 | 175 | 5.0 | 0.0 | 0.00 | 0.00 | 0.00 | 15 | 1000.5 |
| 20260831204526 | 83 | 108 | 5.0 | 0.0 | 0.00 | 0.00 | 0.00 | 15 | 1000.6 |
| 20260831203023 | 83 | 192 | 6.0 | 0.0 | 0.00 | 0.00 | 0.00 | 16 | 1000.7 |
| 20260831201522 | 83 | 226 | 6.0 | 0.0 | 0.00 | 0.00 | 0.00 | 15 | 1001.0 |
| 20260831200017 | 83 | 126 | 6.0 | 0.0 | 0.00 | 0.00 | 0.00 | 14 | 1001.4 |
| 20260831194513 | 82 | 68 | 4.0 | 0.0 | 0.00 | 0.00 | 0.00 | 17 | 1001.4 |
| 20260831193024 | 81 | 94 | 3.0 | 0.0 | 0.00 | 0.00 | 0.00 | 18 | 1001.8 |
| 20260831191505 | 79 | 68 | 3.0 | 0.0 | 0.00 | 0.00 | 0.00 | 21 | 1002.1 |
| 20260831190002 | 78 | 34 | 4.0 | 0.0 | 0.00 | 0.00 | 0.00 | 23 | 1002.4 |
| 20260831184559 | 77 | 65 | 3.0 | 0.0 | 0.00 | 0.00 | 0.00 | 24 | 1002.6 |
| 20260831183102 | 76 | 24 | 4.0 | 0.0 | 0.00 | 0.00 | 0.00 | 24 | 1002.7 |
| 20260831181608 | 75 | 37 | 3.0 | 0.0 | 0.00 | 0.00 | 0.00 | 27 | 1002.9 |
| 20260831180049 | 74 | 38 | 3.0 | 0.0 | 0.00 | 0.00 | 0.00 | 26 | 1003.1 |
| 20260831174547 | 74 | 48 | 3.0 | 0.0 | 0.00 | 0.00 | 0.00 | 28 | 1003.2 |
| 20260831173045 | 72 | 24 | 2.0 | 0.0 | 0.00 | 0.00 | 0.00 | 31 | 1003.3 |
| 20260831171539 | 71 | 46 | 2.0 | 0.0 | 0.00 | 0.00 | 0.00 | 32 | 1003.1 |
| 20260831170037 | 70 | 45 | 2.0 | 0.0 | 0.00 | 0.00 | 0.00 | 33 | 1003.2 |
| 20260831164542 | 69 | 24 | 1.0 | 0.0 | 0.00 | 0.00 | 0.00 | 35 | 1003.2 |
| 20260831163030 | 68 | 32 | 2.0 | 0.0 | 0.00 | 0.00 | 0.00 | 36 | 1003.3 |
| 20260831161547 | 67 | 86 | 2.0 | 0.0 | 0.00 | 0.00 | 0.00 | 37 | 1003.4 |
| 20260831160030 | 67 | 88 | 2.0 | 0.0 | 0.00 | 0.00 | 0.00 | 36 | 1003.4 |
| 20260831154524 | 66 | 88 | 2.0 | 0.0 | 0.00 | 0.00 | 0.00 | 37 | 1003.7 |
| 20260831153023 | 66 | 88 | 1.0 | 0.0 | 0.00 | 0.00 | 0.00 | 36 | 1003.7 |
| 20260831151519 | 65 | 259 | 0.0 | 0.0 | 0.00 | 0.00 | 0.00 | 35 | 1003.8 |
| 20260831150015 | 63 | 259 | 1.0 | 0.0 | 0.00 | 0.00 | 0.00 | 37 | 1003.9 |
| 20260831144514 | 62 | 259 | 1.0 | 0.0 | 0.00 | 0.00 | 0.00 | 36 | 1004.0 |
| 20260831143015 | 60 | 259 | 0.0 | 0.0 | 0.00 | 0.00 | 0.00 | 39 | 1003.9 |
| 20260831141512 | 57 | 259 | 1.0 | 0.0 | 0.00 | 0.00 | 0.00 | 40 | 1003.8 |
| 20260831140012 | 55 | 259 | 3.0 | 0.0 | 0.00 | 0.00 | 0.00 | 41 | 1003.7 |
| 20260831134514 | 53 | 263 | 3.0 | 0.0 | 0.00 | 0.00 | 0.00 | 43 | 1003.7 |
| 20260831133010 | 53 | 263 | 4.0 | 0.0 | 0.00 | 0.00 | 0.00 | 43 | 1003.7 |
| 20260831131509 | 53 | 265 | 3.0 | 0.0 | 0.00 | 0.00 | 0.00 | 43 | 1003.7 |
| 20260831130005 | 55 | 265 | 3.0 | 0.0 | 0.00 | 0.00 | 0.00 | 42 | 1003.7 |
| 20260831124503 | 56 | 265 | 1.0 | 0.0 | 0.00 | 0.00 | 0.00 | 39 | 1003.8 |
| 20260831123002 | 56 | 265 | 1.0 | 0.0 | 0.00 | 0.00 | 0.00 | 40 | 1003.6 |
| 20260831121502 | 57 | 265 | 3.0 | 0.0 | 0.00 | 0.00 | 0.00 | 41 | 1003.6 |
| 20260831120005 | 56 | 264 | 4.0 | 0.0 | 0.00 | 0.00 | 0.00 | 43 | 1003.6 |
| 20260831114600 | 56 | 267 | 3.0 | 0.0 | 0.00 | 0.00 | 0.00 | 44 | 1003.6 |
| 20260831113058 | 56 | 267 | 3.0 | 0.0 | 0.00 | 0.00 | 0.00 | 43 | 1003.7 |